• In Hungary
  • List of Countries
  • For 7 days
  • Water Temperature
  • Satellite Maps
  • Weather Map
  • News
  • Weather Widgets
  • user-avatar
    Login

    Hourly Weather Rosciszewo

    Today, 24 September, Monday

    Time Temperature Precipitation Wind Pressure Humidity
    00:00 +10°C° 0.5 mm 3 mps 747 mmHg 82%
    01:00 +8°C° 0 mm 4 mps 747 mmHg 85%
    02:00 +8°C° 0.3 mm 4 mps 747 mmHg 84%
    03:00 +8°C° 0.3 mm 5 mps 747 mmHg 83%
    04:00 +9°C° 0.3 mm 5 mps 748 mmHg 82%
    05:00 +9°C° 0.1 mm 5 mps 748 mmHg 80%
    06:00 +9°C° 0.1 mm 6 mps 749 mmHg 78%
    07:00 +9°C° 0.1 mm 6 mps 749 mmHg 76%
    08:00 +10°C° 0.2 mm 7 mps 749 mmHg 69%
    09:00 +11°C° 0.2 mm 7 mps 750 mmHg 62%
    10:00 +12°C° 0.2 mm 8 mps 751 mmHg 55%
    11:00 +12°C° 0.5 mm 8 mps 751 mmHg 55%
    12:00 +12°C° 0.5 mm 8 mps 752 mmHg 55%
    13:00 +11°C° 0.5 mm 8 mps 753 mmHg 55%
    14:00 +11°C° 0.2 mm 8 mps 754 mmHg 54%
    15:00 +11°C° 0.2 mm 7 mps 754 mmHg 52%
    16:00 +11°C° 0.2 mm 7 mps 755 mmHg 51%
    17:00 +10°C° 0.1 mm 6 mps 756 mmHg 53%
    18:00 +9°C° 0.1 mm 5 mps 756 mmHg 56%
    19:00 +8°C° 0.1 mm 4 mps 757 mmHg 58%
    20:00 +8°C° 0.1 mm 4 mps 757 mmHg 60%
    21:00 +7°C° 0.1 mm 4 mps 758 mmHg 61%
    22:00 +7°C° 0.1 mm 4 mps 759 mmHg 62%
    23:00 +7°C° 0.2 mm 4 mps 759 mmHg 63%

    Tomorrow, 25 September, Tuesday

    Time Temperature Precipitation Wind Pressure Humidity
    00:00 +7°C° 0.2 mm 4 mps 760 mmHg 64%
    01:00 +6°C° 0.2 mm 4 mps 760 mmHg 65%
    02:00 +6°C° 0.1 mm 5 mps 761 mmHg 66%
    03:00 +6°C° 0.1 mm 5 mps 761 mmHg 66%
    04:00 +6°C° 0.1 mm 5 mps 762 mmHg 66%
    05:00 +7°C° 0.1 mm 5 mps 762 mmHg 64%
    06:00 +7°C° 0.1 mm 5 mps 763 mmHg 61%
    07:00 +7°C° 0.1 mm 6 mps 764 mmHg 58%
    08:00 +9°C° 0 mm 6 mps 765 mmHg 52%
    09:00 +10°C° 0 mm 7 mps 765 mmHg 46%
    10:00 +11°C° 0 mm 8 mps 766 mmHg 41%
    11:00 +11°C° 0 mm 8 mps 766 mmHg 39%
    12:00 +11°C° 0 mm 7 mps 767 mmHg 38%
    13:00 +12°C° 0 mm 7 mps 767 mmHg 37%
    14:00 +11°C° 0 mm 6 mps 767 mmHg 38%
    15:00 +11°C° 0 mm 6 mps 767 mmHg 39%
    16:00 +12°C° 0 mm 5 mps 767 mmHg 40%
    17:00 +10°C° 0 mm 4 mps 768 mmHg 44%
    18:00 +9°C° 0 mm 3 mps 768 mmHg 49%
    19:00 +8°C° 0 mm 2 mps 768 mmHg 53%
    20:00 +7°C° 0 mm 2 mps 768 mmHg 56%
    21:00 +7°C° 0 mm 3 mps 769 mmHg 59%
    22:00 +7°C° 0 mm 3 mps 769 mmHg 61%
    23:00 +7°C° 0 mm 3 mps 768 mmHg 64%

    Day after tomorrow, 26 September, Wednesday

    Time Temperature Precipitation Wind Pressure Humidity
    00:00 +7°C° 0 mm 3 mps 768 mmHg 67%
    01:00 +6°C° 0 mm 4 mps 768 mmHg 70%
    02:00 +6°C° 0 mm 4 mps 768 mmHg 70%
    03:00 +6°C° 0 mm 4 mps 768 mmHg 70%
    04:00 +6°C° 0 mm 5 mps 768 mmHg 69%
    05:00 +6°C° 0 mm 5 mps 767 mmHg 68%
    06:00 +7°C° 0 mm 6 mps 767 mmHg 67%
    07:00 +7°C° 0 mm 6 mps 767 mmHg 65%
    08:00 +8°C° 0 mm 7 mps 766 mmHg 61%
    09:00 +9°C° 0 mm 7 mps 766 mmHg 57%
    10:00 +11°C° 0 mm 8 mps 766 mmHg 52%
    11:00 +10°C° 0.4 mm 8 mps 765 mmHg 56%
    12:00 +10°C° 0.4 mm 8 mps 765 mmHg 61%
    13:00 +9°C° 0.4 mm 8 mps 764 mmHg 65%
    14:00 +9°C° 0.4 mm 8 mps 763 mmHg 66%
    15:00 +9°C° 0.4 mm 8 mps 763 mmHg 66%
    16:00 +9°C° 0.4 mm 8 mps 762 mmHg 67%
    17:00 +10°C° 0.3 mm 8 mps 762 mmHg 67%
    18:00 +10°C° 0.3 mm 8 mps 761 mmHg 66%
    19:00 +10°C° 0.3 mm 8 mps 761 mmHg 65%
    20:00 +11°C° 0.1 mm 8 mps 760 mmHg 65%
    21:00 +11°C° 0.1 mm 8 mps 760 mmHg 65%
    22:00 +12°C° 0.1 mm 8 mps 760 mmHg 65%
    23:00 +12°C° 0 mm 8 mps 759 mmHg 68%

    27 September, Thursday

    Time Temperature Precipitation Wind Pressure Humidity
    00:00 +12°C° 0 mm 8 mps 759 mmHg 70%
    01:00 +12°C° 0 mm 8 mps 759 mmHg 73%
    02:00 +12°C° 0 mm 8 mps 758 mmHg 76%
    03:00 +13°C° 0 mm 8 mps 758 mmHg 79%
    04:00 +13°C° 0 mm 8 mps 758 mmHg 82%
    05:00 +13°C° 0 mm 8 mps 758 mmHg 82%
    06:00 +15°C° 0 mm 9 mps 758 mmHg 82%
    07:00 +15°C° 0 mm 9 mps 758 mmHg 82%
    08:00 +16°C° 0 mm 9 mps 758 mmHg 80%
    09:00 +16°C° 0 mm 9 mps 758 mmHg 79%
    10:00 +17°C° 0 mm 9 mps 758 mmHg 77%
    11:00 +17°C° 0 mm 8 mps 759 mmHg 77%
    12:00 +16°C° 0 mm 8 mps 759 mmHg 77%
    13:00 +16°C° 0 mm 8 mps 759 mmHg 78%
    14:00 +16°C° 0.1 mm 8 mps 759 mmHg 78%
    15:00 +16°C° 0.1 mm 7 mps 759 mmHg 78%
    16:00 +16°C° 0.1 mm 7 mps 759 mmHg 79%
    17:00 +16°C° 0 mm 6 mps 759 mmHg 81%
    18:00 +15°C° 0 mm 6 mps 759 mmHg 84%
    19:00 +15°C° 0 mm 5 mps 759 mmHg 86%
    20:00 +15°C° 0 mm 5 mps 758 mmHg 87%
    21:00 +14°C° 0 mm 5 mps 758 mmHg 88%
    22:00 +14°C° 0 mm 5 mps 758 mmHg 89%
    23:00 +14°C° 0 mm 6 mps 757 mmHg 88%

    28 September, Friday

    Time Temperature Precipitation Wind Pressure Humidity
    00:00 +14°C° 0 mm 6 mps 756 mmHg 88%
    01:00 +14°C° 0 mm 6 mps 756 mmHg 88%
    02:00 +14°C° 0 mm 7 mps 755 mmHg 87%
    03:00 +14°C° 0 mm 7 mps 755 mmHg 86%
    04:00 +14°C° 0 mm 7 mps 754 mmHg 85%
    05:00 +14°C° 0 mm 7 mps 754 mmHg 82%
    06:00 +14°C° 0 mm 7 mps 753 mmHg 79%
    07:00 +14°C° 0 mm 7 mps 753 mmHg 76%
    08:00 +15°C° 0 mm 7 mps 753 mmHg 73%
    09:00 +15°C° 0 mm 8 mps 753 mmHg 69%
    10:00 +16°C° 0 mm 8 mps 753 mmHg 66%
    11:00 +16°C° 0 mm 7 mps 753 mmHg 63%
    12:00 +15°C° 0 mm 7 mps 754 mmHg 61%
    13:00 +15°C° 0 mm 7 mps 754 mmHg 58%
    14:00 +15°C° 0 mm 6 mps 754 mmHg 59%
    15:00 +14°C° 0 mm 6 mps 754 mmHg 60%
    16:00 +14°C° 0 mm 5 mps 755 mmHg 61%
    17:00 +13°C° 0.1 mm 5 mps 755 mmHg 66%
    18:00 +12°C° 0.1 mm 4 mps 755 mmHg 71%
    19:00 +11°C° 0.1 mm 3 mps 756 mmHg 76%
    20:00 +10°C° 0.2 mm 3 mps 756 mmHg 78%
    21:00 +10°C° 0.2 mm 3 mps 756 mmHg 80%
    22:00 +9°C° 0.2 mm 3 mps 757 mmHg 83%
    23:00 +9°C° 0.2 mm 3 mps 757 mmHg 83%

    29 September, Saturday

    Time Temperature Precipitation Wind Pressure Humidity
    00:00 +9°C° 0.2 mm 3 mps 758 mmHg 83%
    01:00 +9°C° 0.2 mm 3 mps 758 mmHg 83%
    02:00 +9°C° 0.2 mm 3 mps 759 mmHg 83%
    03:00 +8°C° 0.2 mm 3 mps 759 mmHg 83%
    04:00 +8°C° 0.2 mm 3 mps 760 mmHg 83%
    05:00 +8°C° 0 mm 3 mps 760 mmHg 81%
    06:00 +8°C° 0 mm 2 mps 761 mmHg 79%
    07:00 +8°C° 0 mm 2 mps 762 mmHg 76%
    08:00 +10°C° 0 mm 3 mps 762 mmHg 68%
    09:00 +11°C° 0 mm 3 mps 763 mmHg 59%
    10:00 +12°C° 0 mm 3 mps 764 mmHg 51%
    11:00 +13°C° 0 mm 3 mps 764 mmHg 48%
    12:00 +13°C° 0 mm 3 mps 764 mmHg 46%
    13:00 +13°C° 0 mm 3 mps 764 mmHg 44%
    14:00 +13°C° 0 mm 3 mps 765 mmHg 45%
    15:00 +13°C° 0 mm 3 mps 765 mmHg 46%
    16:00 +12°C° 0 mm 3 mps 765 mmHg 47%
    17:00 +12°C° 0 mm 2 mps 765 mmHg 51%
    18:00 +10°C° 0 mm 2 mps 765 mmHg 55%
    19:00 +10°C° 0 mm 1 mps 765 mmHg 59%
    20:00 +9°C° 0 mm 1 mps 766 mmHg 61%
    21:00 +9°C° 0 mm 1 mps 766 mmHg 63%
    22:00 +8°C° 0 mm 1 mps 766 mmHg 64%
    23:00 +8°C° 0 mm 1 mps 766 mmHg 66%
    Show more